ASTRA 4A (SIRIUS 4)

Last updated on Nov. 15, 2019, 4:20 a.m. UTC

1 32299U 07057A   19318.40188152  .00000046  00000-0  00000+0 0  9994
2 32299   0.0433  86.6881 0002999 148.0194 328.0217  1.00270713 43821
UTC
Height (km)
Latitude
Longitude
Inclination
Orbital Period
UTC large
Height (km)
Speed (km/s)
/
Latitude / Longitude
Inclination (degrees)
Orbital Period (minutes)
Azimuth
Elevation
Range (km)
Doppler Factor
iOS Compass Heading
iOS Angle

Next 30 passes for location: Hong Kong

Rise time Rise Azimuth (degrees) Set time Set Azimuth (degrees) Duration Max altitude (degrees)

No matching passes for this satellites